Regional Weather Roundup
Issued by NWS

Home | Current Version | Previous Version | Text Only | Print | Product List | Glossary Off
Versions: 1 2 3 4 5 6 7 8 9 10 11 12 13 14 15 16 17 18 19 20 21 22 23 24 25 26 27 28 29 30 31 32 33 34 35 36 37 38 39 40 41 42 43 44 45 46 47 48 49 50

937
ASUS43 KMPX 241710
RWRMN
WEATHER ROUNDUP FOR MINNESOTA
NATIONAL WEATHER SERVICE TWIN CITIES/CHANHASSEN MN
1200 PM CDT TUE APR 24 2018


NOTE: "FAIR" INDICATES FEW OR NO CLOUDS BELOW 12,000 FEET WITH NO
SIGNIFICANT WEATHER AND/OR OBSTRUCTIONS TO VISIBILITY. N/A MEANS
CURRENT SKY AND/OR WEATHER CONDITIONS ARE NOT AVAILABLE.

MNZ060>063-068>070-241800-
   Twin Cities Metro

CITY           SKY/WX    TMP DP  RH WIND       PRES   REMARKS
TWIN CITIES    PTSUNNY   64  33  31 N18G28    30.16R
ST PAUL        FAIR      63  32  31 N18G29    30.16S
CRYSTAL        FAIR      61  31  32 N21G28    30.17R
BLAINE         PTSUNNY   63  34  34 N16G23    30.18R
LAKEVILLE      FAIR      63  39  42 N15G21    30.14R
EDEN PRAIRIE   PTSUNNY   62  33  33 N18G26    30.15S
SOUTH ST PAUL  FAIR      63  32  32 N14       30.15S
LAKE ELMO      FAIR      63  36  36 N9G21     30.16S
$$
MNZ001>005-007-008-013>017-022>024-027-028-241800-
   Northwest Minnesota

CITY           SKY/WX    TMP DP  RH WIND       PRES   REMARKS
BEMIDJI        FAIR      49  26  41 N13G18    30.29F
HALLOCK        FAIR      46  27  46 N21G29    30.39S
ROSEAU         FAIR      43  30  61 NW14G23   30.35R
WARROAD        FAIR      43  27  52 NW12G20   30.35S
THIEF RVR FALL FAIR      46  29  51 NW21G28   30.36S
CROOKSTON      FAIR      46  34  61 N21G28    30.38S
FOSSTON        FAIR      46  30  53 NW18      30.34S
DETROIT LAKES  FAIR      46  32  57 N7G16     30.33S
MOORHEAD       FAIR      48  36  61 N21       30.37S
PARK RAPIDS    FAIR      47  32  56 N12       30.29S
MAHNOMEN       FAIR      48  31  53 N16G23    30.33S
$$
MNZ006-009>011-018-025>026-241800-
   North Central Minnesota

CITY           SKY/WX    TMP DP  RH WIND       PRES   REMARKS
BAUDETTE       FAIR      39  26  59 NW17G29   30.33R
FLAG ISLAND    CLOUDY    30  21  69 NW15      30.37R WCI  19
INTL FALLS     PTSUNNY   46  27  47 NW12G20   30.27S
WASKISH        PTSUNNY   45  28  53 W8        30.29F
BIG FORK       FAIR      50  27  40 NW8       30.26F
LONGVILLE      FAIR      46  32  57 N6        30.28F
GRAND RAPIDS   FAIR      46  29  51 NW10G18   30.28F
CRANE LAKE     FAIR      45  27  49 NW8       30.26S
ORR            FAIR      48  25  40 NW12      30.22F
COOK           FAIR      48  28  46 NW7G16    30.24F
WALKER         FAIR      47  30  50 NW7G17    30.29S
$$
MNZ012-019>021-037-241800-
   Northeast Minnesota

CITY           SKY/WX    TMP DP  RH WIND       PRES   REMARKS
DULUTH         CLOUDY    49  30  48 SE3       30.21S
ELY            FAIR      46  28  49 NW9G16    30.22F
HIBBING        FAIR      47  28  47 NW14      30.24F
EVELETH        PTSUNNY   46  30  54 NW7       30.25S
DULUTH HARBOR  FAIR      45  34  65 N6        30.24F
TWO HARBORS    PTSUNNY   52  34  50 SE5       30.20S
SILVER BAY     FAIR      48  30  49 S3        30.20R
GRAND MARAIS     N/A     44  30  57 W6        30.21S
G MARAIS ARPRT FAIR      45  27  49 NW6       30.19S
$$
MNZ029>031-032-039>041-046>048-054>057-064-241800-
   West Central Minnesota

CITY           SKY/WX    TMP DP  RH WIND       PRES   REMARKS
FERGUS FALLS   PTSUNNY   46  37  71 N8        30.31S
WHEATON        CLOUDY    45  39  81 N12       30.36S
MORRIS         PTSUNNY   45  39  81 N16       30.31R
ALEXANDRIA     CLOUDY    46  39  76 N13       30.29R
ELBOW LAKE     CLOUDY    42  37  83 NE13      30.32S
WADENA         FAIR      43  37  81 N12G17    30.30S
GLENWOOD       DRIZZLE   45  39  81 N13G20    30.28R
APPLETON       LGT RAIN  48  41  76 N17       30.29R
BENSON         CLOUDY    48  39  71 NE15G25   30.29R
ORTONVILLE     RAIN      45  39  81 N18       30.32R
WILLMAR        FAIR      52  39  62 N17G23    30.27R
$$
MNZ033>034-036-042>043-049>051-058-059-241800-
   Central Minnesota

CITY           SKY/WX    TMP DP  RH WIND       PRES   REMARKS
ST CLOUD       FAIR      52  36  54 N15G26    30.23S
SAUK CENTRE    DRIZZLE   44  40  86 N14       30.26S
PAYNESVILLE    PTSUNNY   52  40  61 N12G21    30.25R
AITKIN         DRIZZLE   39  36  87 N10       30.26S
PINE RIVER     CLOUDY    41  32  70 N10       30.31F
BRAINERD       LGT RAIN  43  38  82 N10       30.28S
STAPLES        CLOUDY    43  37  81 N14       30.29S
LONG PRAIRIE   FAIR      43  37  81 NW10G17   30.28R
LITTLE FALLS   LGT RAIN  46  34  61 N10G17    30.26S
LITCHFIELD     FAIR      54  36  50 N16G22    30.23R
BUFFALO        FAIR      55  33  43 N13G21    30.22R
MAPLE LAKE     FAIR      54  36  52 N15G22    30.23S
HUTCHINSON     FAIR      56  37  49 N15G26    30.21S
$$
MNZ037-044-045-052-053-241800-
   East Central Minnesota

CITY           SKY/WX    TMP DP  RH WIND       PRES   REMARKS
PRINCETON      FAIR      54  30  40 N16G23    30.23S
MORA           FAIR      54  32  43 N13G21    30.24S
CAMBRIDGE      PTSUNNY   54  36  50 NW8       30.21S
RUSH CITY      CLOUDY    54  32  43 N13G18    30.21R
MOOSE LAKE     PTSUNNY   52  30  43 N7        30.21F
HINCKLEY       FAIR      54  34  47 N10G18    30.22S
CLOQUET        FAIR      52  27  37 N9        30.23R
MCGREGOR       CLOUDY    43  36  75 NW10      30.26S
$$
MNZ071>073-080-081-089-090-097-098-241800-
   Southwest Minnesota

CITY           SKY/WX    TMP DP  RH WIND       PRES   REMARKS
MONTEVIDEO     CLOUDY    50  39  66 NE21      30.28R
GRANITE FALLS  CLOUDY    52  40  64 N17       30.27R
CANBY          DRIZZLE   48  42  77 N14       30.30S
MARSHALL       LGT RAIN  50  39  66 N21       30.26R
REDWOOD FALLS  CLOUDY    55  37  50 N16G25    30.22R
OLIVIA         CLOUDY    54  39  58 N22G28    30.23R
PIPESTONE      CLOUDY   N/A N/A N/A NE20G29   30.24R
WINDOM         CLOUDY    54  34  47 NW21      30.20S
WORTHINGTON    CLOUDY    49  41  74 N21       30.21S
JACKSON        CLOUDY    52  41  66 N13G20    30.20R
TRACY          CLOUDY    51  42  71 N17       30.24R
SLAYTON        CLOUDY    48  41  77 N16G24    30.24R
$$
MNZ065>067-074>077-082>085-091>093-241800-
   South Central Minnesota

CITY           SKY/WX    TMP DP  RH WIND       PRES   REMARKS
MANKATO        FAIR      58  44  60 NW17      30.17R
NEW ULM        CLOUDY    55  37  50 N15       30.19R
ST JAMES       CLOUDY    55  45  67 NW17      30.20R
FAIRMONT       MOSUNNY   56  49  77 NW18      30.18R
GLENCOE        PTSUNNY   56  38  50 N15G23    30.19R
OWATONNA       FAIR      66  45  45 NW8       30.13S
WASECA         FAIR      63  45  51 NW13G20   30.15S
ALBERT LEA     FAIR      64  41  42 NW7       30.14S
$$
MNZ078>079-086>088-094>096-241800-
   Southeast Minnesota

CITY           SKY/WX    TMP DP  RH WIND       PRES   REMARKS
ROCHESTER      FAIR      67  39  35 NW7       30.12F
RED WING       FAIR      70  32  24 W7        30.09F
STANTON        FAIR      67  42  40 N3        30.11F
DODGE CENTER   FAIR      64  39  39 N6        30.13S
WINONA         FAIR      70  34  26 CALM      30.08S
AUSTIN         FAIR      64  43  45 N7        30.12F
PRESTON        FAIR      66  35  31 N6        30.11F
$$
ABBREVIATIONS USED IN REMARKS
   TC - TEMPERATURES IN CELSIUS
  WCI - WIND CHILL INDEX
   HX - HEAT INDEX
  VSB - VISIBILITY
$$




USA.gov is the U.S. government's official web portal to all federal, state and local government web resources and services.